Flag for Germany Past Weather in Weilheim in Oberbayern, Bavaria, Germany — Yesterday and Last 2 Weeks

Now
66 °F

Mild.


Feels Like: 66 °F
Forecast: 52 / 71 °F
Wind: 16 mph from West

Location: Altenstadt Airport

Current Time: Jul 2, 2016 at 11:40:25 AM

Latest Report: Jul 2, 2016 at 10:20 AM


Visibility: N/A

Pressure: 30.07 "Hg (28.16 "Hg at 560m altitude)

Humidity: 73%

Dew Point: 57 °F

Location of Weilheim in OberbayernLocation

Past Weather in Weilheim in Oberbayern — Graph

°F

Weilheim in Oberbayern Temperature Yesterday

Maximum temperature yesterday: 77 °F (at 5:20 PM)
Minimum temperature yesterday: 55 °F (at 3:20 AM)
Average temperature yesterday: 66 °F

High & Low Weather Summary for the Past Weeks

 TemperatureHumidityPressure
High86 °F (Jun 24, 3:20 PM)100% (Jun 18, 9:20 PM)30.33 "Hg (Jun 18, 9:20 PM)
Low50 °F (Jun 18, 1:20 AM)35% (Jun 23, 1:20 PM)29.83 "Hg (Jun 17, 10:20 AM)
Average63 °F75%30.13 "Hg
* Reported Jun 17 10:20 AM — Jul 2 10:20 AM, Weilheim in Oberbayern, Weather by CustomWeather, © 2016

Note: Actual official high and low records may vary slightly from our data, if they occured in-between our weather recording intervals... More about our weather records

Advertising

Weilheim in Oberbayern Weather History for the Previous 24 Hours

Scroll right to see more
 ConditionsComfort  
Time TempWeatherWind HumidityBarometerVisibility
10:20 AM
Sat, Jul 2
66 °FMild.16 mph73%30.07 "HgN/A
9:20 AM68 °FMild.10 mph73%30.07 "HgN/A
8:20 AM68 °FMild.15 mph69%30.04 "HgN/A
7:20 AM64 °FMild.6 mph78%30.01 "HgN/A
6:20 AM63 °FMild.1 mph83%30.01 "HgN/A
5:20 AM64 °FMild.5 mph73%30.01 "HgN/A
4:20 AM63 °FMild.1 mph83%30.04 "HgN/A
3:20 AM63 °FMild.2 mph88%30.04 "HgN/A
2:20 AM63 °FMild.3 mph88%30.07 "HgN/A
1:20 AM63 °FMild.3 mph88%30.07 "HgN/A
12:20 AM64 °FMild.2 mph83%30.07 "HgN/A
11:20 PM
Fri, Jul 1
64 °FMild.3 mph83%30.07 "HgN/A
10:20 PM64 °FMild.2 mph88%30.07 "HgN/A
9:20 PM68 °FMild.2 mph73%30.07 "HgN/A
8:20 PM72 °FScattered clouds.3 mph69%30.07 "HgN/A
7:20 PM77 °FPassing clouds.2 mph51%30.07 "HgN/A
6:20 PM75 °FPassing clouds.3 mph50%30.07 "HgN/A
5:20 PM77 °FPassing clouds.5 mph51%30.07 "HgN/A
4:20 PM75 °FPassing clouds.3 mph50%30.07 "HgN/A
3:20 PM75 °FPassing clouds.5 mph54%30.09 "HgN/A
2:20 PM75 °FPassing clouds.3 mph50%30.09 "HgN/A
1:20 PM75 °FScattered clouds.5 mph57%30.12 "HgN/A
12:20 PM73 °FPassing clouds.3 mph57%30.12 "HgN/A
11:20 AM70 °FPassing clouds.6 mph64%30.12 "HgN/A
Weather by CustomWeather, © 2016

See weather overviewHow to use our weather pages